Simultaneous Nadir Overpasses (SNOs) Predictions

Prediction of SNOs between GOES-16 and AQUA Satellite Orbit:

Table of predicted SNOs for the next 14.0 days since TLE Epoch: 9/21/2024
Index Date Time (GOES-16) GOES-16 Lat,Lon AQUA Lat,Lon Distance(km) Time Diff (sec)
1 09/21/2024 07:14:41 0.06, -75.19 -0.21, -73.93 143.77 80
2 09/21/2024 19:32:00 -0.05, -75.20 -0.83, -78.77 405.58 80
3 09/23/2024 19:17:04 -0.05, -75.21 0.12, -74.46 85.48 80
4 09/24/2024 07:34:14 0.05, -75.20 0.89, -79.27 461.25 80
5 09/26/2024 07:19:15 0.04, -75.22 -0.03, -74.95 31.09 80
6 09/28/2024 19:18:54 -0.03, -75.25 -0.07, -75.46 23.65 80
7 09/30/2024 19:03:52 -0.03, -75.29 0.84, -71.13 472.05 80
8 10/01/2024 07:23:42 0.02, -75.29 0.17, -75.93 73.31 80
9 10/03/2024 07:03:19 0.03, -75.33 -0.77, -71.60 423.97 80
10 10/03/2024 19:23:17 -0.02, -75.34 -0.28, -76.43 123.70 80
